Flag Weather past 2 weeks in Kennebunk, Maine, U.S.A.

Now
55 °F

Passing clouds.


Feels Like: 53 °F
Forecast: 40 / 55 °F
Wind: 8 mph from West

Location: Sanford Municipal

Current Time: Oct 30, 2014 at 3:14:35 PM

Latest Report: Oct 30, 2014 at 2:35 PM


Visibility: 10 mi

Pressure: 29.90 "Hg

Humidity: 47%

Dew point: 36 °F

Location of KennebunkLocation

Historic Weather in Kennebunk — Graph

°F

Kennebunk temperature yesterday

Maximum temperature yesterday: 63 °F (at 2:35 PM)
Minimum temperature yesterday: 48 °F (at 12:15 AM)
Average temperature yesterday: 53 °F

Past Weeks' High & Low Weather Summary

 TemperatureHumidityPressure
High77 °F (Oct 15, 1:35 PM)94% (Oct 16, 3:35 AM)30.11 "Hg (Oct 16, 3:35 AM)
Low34 °F (Oct 20, 6:55 AM)28% (Oct 25, 3:55 PM)29.39 "Hg (Oct 26, 4:55 AM)
Average51 °F72%29.80 "Hg
* Reported Oct 15 1:15 PM — Oct 30 1:55 PM, Kennebunk, Weather by CustomWeather, © 2014

Note: Actual official high and low records may vary slightly from our data, if they occured in-between our weather recording intervals... More about our weather records

Advertising

Kennebunk weather history for previous 24 hours

 ConditionsComfort  
Time TempWeatherWind HumidityBarometerVisibility
1:55 PM
Oct 30
55 °FScattered clouds.9 mph44%29.90 "Hg10 mi
1:35 PM54 °FSunny.10 mph47%29.89 "Hg10 mi
1:15 PM55 °FSunny.10 mph44%29.89 "Hg10 mi
12:55 PM55 °FScattered clouds.15 mph44%29.89 "Hg10 mi
12:35 PM55 °FPartly sunny.12 mph47%29.90 "Hg10 mi
12:15 PM54 °FPartly sunny.9 mph51%29.90 "Hg10 mi
11:55 AM54 °FOvercast.7 mph54%29.91 "Hg10 mi
11:35 AM52 °FOvercast.7 mph58%29.91 "Hg10 mi
11:15 AM52 °FOvercast.9 mph62%29.91 "Hg10 mi
10:55 AM50 °FMostly cloudy.9 mph62%29.92 "Hg10 mi
10:35 AM52 °FOvercast.9 mph58%29.91 "Hg10 mi
10:15 AM50 °FOvercast.10 mph62%29.91 "Hg10 mi
9:55 AM48 °FOvercast.7 mph62%29.92 "Hg10 mi
9:35 AM48 °FPartly sunny.7 mph66%29.91 "Hg10 mi
9:15 AM46 °FPartly sunny.6 mph71%29.91 "Hg10 mi
8:55 AM45 °FPartly sunny.7 mph71%29.91 "Hg10 mi
8:35 AM45 °FPartly sunny.8 mph76%29.91 "Hg10 mi
8:15 AM43 °FOvercast.8 mph76%29.91 "Hg10 mi
7:55 AM41 °FOvercast.8 mph81%29.90 "Hg10 mi
7:35 AM39 °FPassing clouds.8 mph81%29.90 "Hg10 mi
7:15 AM39 °FClear.7 mph81%29.89 "Hg10 mi
6:55 AM39 °FPassing clouds.9 mph75%29.89 "Hg10 mi
6:35 AM39 °FPassing clouds.7 mph81%29.89 "Hg10 mi
6:15 AM37 °FPassing clouds.8 mph75%29.88 "Hg10 mi
5:55 AM39 °FClear.7 mph87%29.87 "Hg10 mi
5:35 AM41 °FClear.7 mph76%29.87 "Hg10 mi
4:55 AM41 °FClear.7 mph76%29.87 "Hg10 mi
4:35 AM41 °FClear.8 mph81%29.86 "Hg10 mi
4:15 AM34 °FClear.7 mph87%29.85 "Hg2 mi
3:55 AM36 °FClear.No wind87%29.85 "Hg7 mi
3:35 AM36 °FClear.No wind81%29.85 "Hg7 mi
3:15 AM37 °FClear.No wind75%29.86 "Hg4 mi
2:55 AM37 °FClear.No wind87%29.86 "Hg10 mi
2:35 AM41 °FClear.No wind81%29.86 "Hg10 mi
1:55 AM45 °FClear.5 mph76%29.86 "Hg10 mi
1:35 AM45 °FClear.6 mph76%29.86 "Hg10 mi
1:15 AM45 °FClear.5 mph76%29.85 "Hg10 mi
12:55 AM46 °FClear.6 mph76%29.85 "Hg10 mi
12:35 AM48 °FClear.7 mph76%29.84 "Hg10 mi
12:15 AM48 °FClear.8 mph82%29.84 "Hg10 mi
11:55 PM
Oct 29
48 °FClear.6 mph82%29.83 "Hg10 mi
11:35 PM48 °FClear.5 mph87%29.83 "Hg9 mi
11:15 PM48 °FPassing clouds.3 mph87%29.83 "Hg5 mi
10:55 PM50 °FPassing clouds.No wind82%29.83 "Hg10 mi
10:35 PM50 °FPassing clouds.3 mph82%29.83 "Hg10 mi
10:15 PM50 °FPartly cloudy.No wind82%29.83 "Hg10 mi
9:55 PM52 °FPassing clouds.3 mph82%29.84 "Hg10 mi
9:35 PM52 °FPassing clouds.3 mph82%29.83 "Hg10 mi
9:15 PM52 °FPassing clouds.No wind82%29.83 "Hg10 mi
8:55 PM52 °FMostly cloudy.No wind82%29.82 "Hg10 mi
8:35 PM52 °FMostly cloudy.No wind82%29.81 "Hg10 mi
7:55 PM54 °FOvercast.5 mph77%29.81 "Hg10 mi
7:35 PM54 °FOvercast.6 mph77%29.82 "Hg10 mi
7:15 PM54 °FOvercast.3 mph77%29.81 "Hg10 mi
6:55 PM54 °FOvercast.3 mph72%29.81 "Hg10 mi
6:35 PM57 °FOvercast.8 mph59%29.82 "Hg10 mi
6:15 PM57 °FOvercast.9 mph55%29.82 "Hg10 mi
5:55 PM59 °FMore clouds than sun.10 mph55%29.80 "Hg10 mi
5:35 PM61 °FOvercast.12 mph55%29.80 "Hg10 mi
4:55 PM61 °FOvercast.10 mph63%29.79 "Hg10 mi
4:35 PM61 °FOvercast.9 mph63%29.79 "Hg10 mi
4:15 PM63 °FOvercast.13 mph59%29.79 "Hg10 mi
3:55 PM63 °FCloudy.13 mph64%29.79 "Hg10 mi
3:35 PM63 °FPartly sunny.6 mph68%29.79 "Hg10 mi
3:15 PM63 °FScattered clouds.10 mph68%29.78 "Hg10 mi
Weather by CustomWeather, © 2014

See weather overviewHow to use our weather pages